Regional Weather Roundup
Issued by NWS

Home | Current Version | Previous Version | Graphics & Text | Print | Product List | Glossary On
Versions: 1 2 3 4 5 6 7 8 9 10 11 12 13 14 15 16 17 18 19 20 21 22 23 24 25 26 27 28 29 30 31 32 33 34 35 36 37 38 39 40 41 42 43 44 45 46 47 48 49 50
000
ASUS45 KTFX 311819
RWRMT
MONTANA HOURLY WEATHER ROUNDUP
NATIONAL WEATHER SERVICE GREAT FALLS MT
1219 PM MDT THU JUL 31 2014

NOTE: "FAIR" INDICATES FEW OR NO CLOUDS BELOW 12000 FEET WITH NO
SIGNIFICANT WEATHER AND/OR OBSTRUCTIONS TO VISIBILITY.

* THESE STATIONS ARE NOT UNDER NWS QUALITY CONTROL. THEY DO NOT
   REPORT WEATHER SUCH AS PRECIPITATION OR FOG.

MTZ001>007-043-311900-
WEST OF THE DIVIDE
CITY           SKY/WX    TMP DP  RH WIND       PRES   REMARKS
KALISPELL      SUNNY     79  52  39 VRB3      30.14F
MISSOULA       SUNNY     82  45  27 VRB3      30.17F
BUTTE          PTCLDY    77  41  28 VRB3      30.29F
MULLAN PASS    SUNNY     75  36  24 N3        30.34R
* ESSEX        N/A       79  48  34 VRB2       N/A
* LINCOLN      N/A       74  47  38 E3         N/A
* LOOKOUT PASS N/A       82  38  21 NW2G7      N/A
* POLSON       N/A       83  52  34 SW2        N/A
* RONAN APT    SUNNY     81  55  41 N/A        N/A   HI  81
* SEELEY LAKE  N/A       80  46  30 W4         N/A
* THOMP F APT  SUNNY     73  44  35 SE4G10     N/A
* YAAK HILL    N/A       85  54  35 S2         N/A
$$

MTZ008-052>055-311900-
SOUTHWEST MONTANA
CITY           SKY/WX    TMP DP  RH WIND       PRES   REMARKS
BOZEMAN        SUNNY     81  45  28 E3        30.23F
DILLON         SUNNY     75  45  34 CALM      30.27F
W YELLOWSTONE  SUNNY     73  36  26 SE6       30.35F
* THREE FORKS  SUNNY     81  55  41 N/A        N/A   HI  81
* BOULDER HILL N/A       77  44  31 N4G9       N/A
* MONIDA PASS  N/A       68  45  44 SW6        N/A
* RAYNOLDS PAS N/A       71  48  44 SE4G9      N/A
* WHITEHALL    N/A       79  49  35 SW7G12     N/A
* WISE RIVER   N/A       72  46  40 NW4        N/A
$$

MTZ009>010-012-014-046-048-049-054-311900-
EAST SLOPES AND CENTRAL MONTANA
CITY           SKY/WX    TMP DP  RH WIND       PRES   REMARKS
CUT BANK       SUNNY     88  43  21 NW7       30.13S
GREAT FALLS    SUNNY     88  37  16 SW8       30.13F
HELENA         SUNNY     81  46  29 CALM      30.18F
MALMSTROM AFB  SUNNY     84  43  24 VRB7      30.13F
* CONRAD       SUNNY     88  48  25 NW6        N/A
* DEARBORN     N/A       86  44  23 S9         N/A
* EAST GLACIER N/A       85  41  21 W5G12      N/A
* MONARCH      N/A       79  41  26 NW8G15     N/A
* PENDROY      N/A       87  52  30 W4G11      N/A
* ROGERS PASS  N/A       76  41  29 NW5G11     N/A
* SAINT MARY   N/A       82  51  34 NE3G12     N/A
* SWEET GRASS  N/A       85  42  22 N10G15     N/A
* WHITE SULPH  N/A       80  46  30 W5         N/A
$$

MTZ011-013-016-021-035-040-045-047-050-051-311900-
NORTH CENTRAL MONTANA
CITY           SKY/WX    TMP DP  RH WIND       PRES   REMARKS
HAVRE          SUNNY     90  43  19 W8        30.05S
LEWISTOWN      PTCLDY    86  43  22 N6        30.16F
* FORT BENTON  SUNNY     90  43  19 S6G16     30.08F
* CHESTER      N/A       86  40  20 W8G15      N/A
* DENTON       N/A       88  50  27 NW8        N/A
* GEYSER       N/A       86  47  26 W11G16     N/A
* JUDITH GAP   N/A       83  48  30 NW9G16     N/A
* LOMA         N/A       88  42  20 S4G14      N/A
$$

MTZ017>020-022>027-061-062-311900-
NORTHEAST MONTANA
CITY           SKY/WX    TMP DP  RH WIND       PRES   REMARKS
GLASGOW        SUNNY     91  45  20 SW8       30.00F
GLENDIVE       PTSUNNY   88  46  23 S15G25    30.08F
JORDAN         SUNNY     93  36  13 W8        30.03F
SIDNEY         PTCLDY    88  55  33 S5        30.06F
WOLF POINT     SUNNY     91  43  19 SW9       30.02F
* BEAVER HILL  N/A       80  51  36 SW12G17    N/A
* CIRCLE       N/A       87  54  32 S12G21     N/A
* LINDSAY DVD  N/A       79  51  38 S18G26     N/A
* NAVAJO       N/A       81  59  47 S6G12      N/A   HI  81
$$

MTZ028>042-056>058-311900-
SOUTHCENTRAL AND SOUTHEAST MONTANA
CITY           SKY/WX    TMP DP  RH WIND       PRES   REMARKS
BAKER          PTCLDY    90  45  21 S10       30.13F
BILLINGS       PTCLDY    84  43  24 SW9       30.14F
LIVINGSTON     SUNNY     86  43  22 W10       30.20F
MILES CITY     SUNNY     90  41  18 SW15G22   30.07F
* LAUREL APT   PTCLDY    88  39  18 SW5        N/A
* ROUNDUP APT  PTCLDY    86  39  19 N/A        N/A
* ALZADA       N/A       81  46  29 SE2G7      N/A
* HYSHAM       N/A       88  47  24 NW5G12     N/A
* LAME DEER    N/A       83  40  22 S8G15      N/A
* REED POINT   N/A       86  48  27 W8         N/A
* ROSCOE HILL  N/A       81  40  23 N6G11      N/A
$$

REGIONAL REPORTS...DAKOTAS
CITY           SKY/WX    TMP DP  RH WIND       PRES   REMARKS
WILLISTON      PTCLDY    81  55  41 E6        30.08S HI  81
DICKINSON      SUNNY     81  54  39 W3        30.09F
CROSBY         SUNNY     77  59  54 SE8       30.08F
TIOGA          SUNNY     77  59  54 SE9G17    30.12F
WATFORD CITY   SUNNY     81  52  37 E5        30.06F
BISMARCK       SUNNY     82  55  40 VRB5      30.08F HI  81
GRAND FORKS    SUNNY     81  63  54 VRB6      30.02S HI  82
FARGO          SUNNY     82  61  49 NW10      30.02F HI  83
BUFFALO SD     SUNNY     84  48  29 SW3       30.08F
RAPID CITY     SUNNY     82  52  35 VRB5      30.17F
$$

REGIONAL REPORTS...WYOMING/IDAHO/WASHINGTON
CITY           SKY/WX    TMP DP  RH WIND       PRES   REMARKS
GILLETTE       SUNNY     82  43  25 S10       30.22S
SHERIDAN       SUNNY     88  37  16 SE9       30.16F
CODY           SUNNY     79  39  24 N10       30.23R
YELLOWSTONE LA SUNNY     64  48  56 VRB5      30.45F
SALMON         SUNNY     75  46  36 N3        30.20F
MULLAN PASS    SUNNY     75  36  24 N3        30.34S
SAND POINT     SUNNY     81  52  37 CALM      30.07F
SPOKANE        SUNNY     88  45  22 VRB3      30.07S
$$

REGIONAL REPORTS...ALBERTA
CITY           SKY/WX    TMP DP  RH WIND       PRES   REMARKS
CALGARY        SUNNY     75  61  62 NW12G20   30.16S
LETHBRIDGE     SUNNY     79  55  44 N10G17    30.12R
MEDICINE HAT   SUNNY     86  59  40 NW16      30.05R HI  85
EDMONTON       PTSUNNY   77  61  58 N9        30.13R
WATERTON GATE  N/A       82  45  27 S2         N/A
CARDSTON       N/A       79  55  44 N8         N/A
MILK RIVER     N/A       84  46  26 N13        N/A
$$

REGIONAL REPORTS...SASKATCHEWAN
CITY           SKY/WX    TMP DP  RH WIND       PRES   REMARKS
SWIFT CURRENT  SUNNY     84  50  31 N6        30.02S
MOOSE JAW      SUNNY     81  59  47 SE10      30.03F HI  81
REGINA         SUNNY     79  61  54 SE13      30.05F
VAL MARIE      N/A       84  48  29 S3         N/A
ASSINIBOIA     N/A       81  52  37 SE2        N/A
CORONACH       N/A       84  50  31 S8         N/A

$$



USA.gov is the U.S. government's official web portal to all federal, state and local government web resources and services.